DLH23C EDDF-LPPT

Flight info

Callsign DLH23C
Flight time 2h 43m
Altitude 35000
Route SOBRA2L/18 SOBRA Y180 DIK UN857 TOLVU DCT RAPOR DCT GIMER DCT ESTOC UT300 PON UN872 ERIGA UZ218 FUJTI DCT ATLEN DCT ABUPI DCT XAMAX
Aircraft A320/M-SDE3FGHIRWY/LB1

Departure

Time 2026-05-06 19:32
Airport Frankfurt Main Airport (EDDF)

Arrival

Time 2026-05-06 22:15
Airport Lisbon Humberto Delgado Airport (LPPT)
Time Latitude Longitude Altitude Speed Heading
2026-05-06 18:40 50.03867 8.54787 361 ft 0 kts 160°
2026-05-06 19:08 50.03868 8.54787 352 ft 0 kts 160°
2026-05-06 19:28 50.03866 8.54788 352 ft 1 kts 160°
2026-05-06 19:28 50.03838 8.54804 354 ft 7 kts 159°
2026-05-06 19:28 50.03795 8.54825 350 ft 6 kts 176°
2026-05-06 19:28 50.03768 8.54776 351 ft 8 kts 248°
2026-05-06 19:29 50.03740 8.54660 350 ft 15 kts 250°
2026-05-06 19:29 50.03697 8.54478 347 ft 20 kts 249°
2026-05-06 19:29 50.03645 8.54260 348 ft 22 kts 250°
2026-05-06 19:29 50.03588 8.54024 336 ft 24 kts 250°
2026-05-06 19:30 50.03528 8.53768 336 ft 26 kts 249°
2026-05-06 19:30 50.03462 8.53496 335 ft 28 kts 249°
2026-05-06 19:30 50.03394 8.53211 336 ft 29 kts 249°
2026-05-06 19:30 50.03325 8.52923 333 ft 23 kts 250°
2026-05-06 19:31 50.03280 8.52735 332 ft 19 kts 250°
2026-05-06 19:31 50.03246 8.52602 334 ft 7 kts 236°
2026-05-06 19:31 50.03143 8.52595 332 ft 23 kts 180°
2026-05-06 19:32 50.02908 8.52597 331 ft 77 kts 180°
2026-05-06 19:32 50.02154 8.52605 335 ft 137 kts 180°
2026-05-06 19:32 50.01035 8.52630 432 ft 175 kts 182°
2026-05-06 19:32 49.99844 8.52667 1257 ft 170 kts 180°
2026-05-06 19:33 49.98661 8.52738 1937 ft 171 kts 180°
2026-05-06 19:33 49.97471 8.52819 2583 ft 170 kts 180°
2026-05-06 19:33 49.96291 8.52898 3218 ft 170 kts 181°
2026-05-06 19:33 49.95045 8.52978 3535 ft 191 kts 181°
2026-05-06 19:34 49.93618 8.53059 3694 ft 220 kts 181°
2026-05-06 19:34 49.92030 8.53157 3960 ft 233 kts 180°
2026-05-06 19:34 49.90416 8.53267 3977 ft 232 kts 180°
2026-05-06 19:34 49.88827 8.53378 3985 ft 231 kts 180°
2026-05-06 19:35 49.87203 8.53310 4118 ft 231 kts 195°
2026-05-06 19:35 49.85602 8.52503 4607 ft 252 kts 202°
2026-05-06 19:35 49.83931 8.51563 5408 ft 258 kts 202°
2026-05-06 19:35 49.82232 8.50604 6294 ft 262 kts 202°
2026-05-06 19:36 49.80506 8.49627 7115 ft 266 kts 202°
2026-05-06 19:36 49.78781 8.48645 7935 ft 270 kts 204°
2026-05-06 19:36 49.77183 8.47063 8751 ft 271 kts 227°
2026-05-06 19:36 49.76174 8.44618 9568 ft 274 kts 251°
2026-05-06 19:37 49.75920 8.41700 10285 ft 281 kts 274°
2026-05-06 19:37 49.76316 8.38611 10544 ft 305 kts 282°
2026-05-06 19:37 49.76851 8.35342 10916 ft 322 kts 283°
2026-05-06 19:37 49.77423 8.31945 11567 ft 328 kts 283°
2026-05-06 19:38 49.78001 8.28497 12270 ft 334 kts 283°
2026-05-06 19:38 49.78578 8.24999 12958 ft 339 kts 283°
2026-05-06 19:38 49.79159 8.21435 13648 ft 344 kts 283°
2026-05-06 19:38 49.79744 8.17816 14263 ft 348 kts 283°
2026-05-06 19:39 49.80328 8.14167 14922 ft 350 kts 283°
2026-05-06 19:39 49.80912 8.10481 15534 ft 355 kts 283°
2026-05-06 19:39 49.81503 8.06747 16139 ft 359 kts 283°
2026-05-06 19:39 49.82098 8.02973 16745 ft 363 kts 283°
2026-05-06 19:40 49.82697 7.99165 17374 ft 366 kts 283°
2026-05-06 19:40 49.83303 7.95308 17959 ft 370 kts 283°
2026-05-06 19:40 49.83916 7.91413 18490 ft 374 kts 283°
2026-05-06 19:40 49.84536 7.87474 18994 ft 377 kts 283°
2026-05-06 19:41 49.85158 7.83508 19514 ft 381 kts 283°
2026-05-06 19:41 49.85781 7.79517 20002 ft 384 kts 283°
2026-05-06 19:41 49.86410 7.75460 20494 ft 388 kts 282°
2026-05-06 19:41 49.87047 7.71388 20982 ft 391 kts 283°
2026-05-06 19:42 49.87691 7.67293 21594 ft 390 kts 283°
2026-05-06 19:42 49.88331 7.63206 22134 ft 392 kts 283°
2026-05-06 19:42 49.88975 7.59064 22573 ft 396 kts 283°
2026-05-06 19:42 49.89619 7.54893 23069 ft 398 kts 283°
2026-05-06 19:43 49.90260 7.50715 23529 ft 401 kts 283°
2026-05-06 19:43 49.90905 7.46490 23915 ft 403 kts 283°
2026-05-06 19:43 49.91550 7.42254 24277 ft 407 kts 283°
2026-05-06 19:43 49.92202 7.37963 24631 ft 410 kts 283°
2026-05-06 19:44 49.92859 7.33636 24985 ft 413 kts 283°
2026-05-06 19:44 49.93518 7.29294 25335 ft 416 kts 282°
2026-05-06 19:44 49.94182 7.24908 25709 ft 418 kts 282°
2026-05-06 19:44 49.94847 7.20508 26086 ft 420 kts 282°
2026-05-06 19:45 49.95515 7.16082 26432 ft 422 kts 282°
2026-05-06 19:45 49.96196 7.11560 26789 ft 425 kts 282°
2026-05-06 19:45 49.96869 7.07080 27123 ft 428 kts 282°
2026-05-06 19:45 49.97512 7.02549 27464 ft 429 kts 277°
2026-05-06 19:46 49.97579 6.97951 27791 ft 429 kts 261°
2026-05-06 19:46 49.96971 6.93403 28119 ft 430 kts 255°
2026-05-06 19:46 49.96271 6.88868 28449 ft 432 kts 255°
2026-05-06 19:46 49.95559 6.84323 28772 ft 434 kts 255°
2026-05-06 19:47 49.94841 6.79761 29137 ft 435 kts 255°
2026-05-06 19:47 49.94122 6.75191 29489 ft 436 kts 255°
2026-05-06 19:47 49.93407 6.70625 29799 ft 438 kts 255°
2026-05-06 19:47 49.92687 6.66014 30076 ft 440 kts 255°
2026-05-06 19:48 49.91961 6.61401 30301 ft 442 kts 255°
2026-05-06 19:48 49.91224 6.56733 30552 ft 443 kts 255°
2026-05-06 19:48 49.90491 6.52093 30818 ft 445 kts 255°
2026-05-06 19:48 49.89750 6.47415 31112 ft 445 kts 255°
2026-05-06 19:49 49.89014 6.42764 31470 ft 445 kts 255°
2026-05-06 19:49 49.88278 6.38124 31818 ft 444 kts 255°
2026-05-06 19:49 49.87535 6.33465 32180 ft 443 kts 255°
2026-05-06 19:49 49.86796 6.28842 32518 ft 442 kts 255°
2026-05-06 19:50 49.86053 6.24227 32853 ft 442 kts 255°
2026-05-06 19:50 49.85307 6.19603 33188 ft 442 kts 255°
2026-05-06 19:50 49.84560 6.15000 33526 ft 441 kts 255°
2026-05-06 19:50 49.83810 6.10372 33859 ft 441 kts 255°
2026-05-06 19:51 49.83062 6.05782 34145 ft 440 kts 255°
2026-05-06 19:51 49.82309 6.01177 34417 ft 440 kts 255°
2026-05-06 19:51 49.81559 5.96600 34665 ft 440 kts 255°
2026-05-06 19:51 49.80797 5.91957 34847 ft 440 kts 255°
2026-05-06 19:52 49.79295 5.82802 34894 ft 437 kts 255°
2026-05-06 19:52 49.77786 5.73696 34903 ft 437 kts 255°
2026-05-06 19:53 49.76277 5.64596 34904 ft 437 kts 255°
2026-05-06 19:53 49.74758 5.55510 34909 ft 436 kts 255°
2026-05-06 19:54 49.73229 5.46433 34913 ft 437 kts 255°
2026-05-06 19:54 49.71693 5.37335 34920 ft 437 kts 255°
2026-05-06 19:55 49.70153 5.28254 34916 ft 437 kts 255°
2026-05-06 19:55 49.68604 5.19182 34926 ft 438 kts 255°
2026-05-06 19:56 49.67041 5.10088 34921 ft 438 kts 255°
2026-05-06 19:56 49.65473 5.01026 34928 ft 438 kts 255°
2026-05-06 19:57 49.63899 4.91946 34924 ft 438 kts 255°
2026-05-06 19:57 49.62323 4.82879 34927 ft 438 kts 255°
2026-05-06 19:58 49.60739 4.73817 34928 ft 438 kts 255°
2026-05-06 19:58 49.59144 4.64744 34934 ft 438 kts 255°
2026-05-06 19:59 49.57539 4.55692 34935 ft 438 kts 254°
2026-05-06 19:59 49.55929 4.46644 34943 ft 438 kts 255°
2026-05-06 20:00 49.54304 4.37547 34945 ft 438 kts 255°
2026-05-06 20:00 49.52686 4.28570 34944 ft 437 kts 254°
2026-05-06 20:01 49.51048 4.19499 34944 ft 437 kts 254°
2026-05-06 20:01 49.49418 4.10491 34944 ft 437 kts 254°
2026-05-06 20:02 49.47776 4.01494 34943 ft 437 kts 254°
2026-05-06 20:02 49.46126 3.92488 34950 ft 437 kts 254°
2026-05-06 20:03 49.44751 3.85030 34945 ft 437 kts 254°
2026-05-06 20:03 49.43083 3.76038 34938 ft 437 kts 254°
2026-05-06 20:04 49.41139 3.65548 34934 ft 437 kts 254°
2026-05-06 20:04 49.39737 3.58047 34942 ft 437 kts 254°
2026-05-06 20:05 49.37777 3.47632 34950 ft 437 kts 254°
2026-05-06 20:05 49.36362 3.40127 34951 ft 437 kts 254°
2026-05-06 20:06 49.34667 3.31186 34952 ft 437 kts 254°
2026-05-06 20:06 49.32964 3.22249 34952 ft 437 kts 254°
2026-05-06 20:07 49.31258 3.13299 34950 ft 437 kts 253°
2026-05-06 20:07 49.29544 3.04367 34952 ft 437 kts 253°
2026-05-06 20:08 49.27812 2.95434 34948 ft 438 kts 253°
2026-05-06 20:08 49.26075 2.86506 34943 ft 438 kts 253°
2026-05-06 20:09 49.24332 2.77552 34956 ft 438 kts 253°
2026-05-06 20:09 49.22588 2.68636 34954 ft 438 kts 253°
2026-05-06 20:10 49.20838 2.59734 34960 ft 438 kts 254°
2026-05-06 20:10 49.19081 2.50808 34966 ft 438 kts 253°
2026-05-06 20:11 49.17311 2.41908 34967 ft 438 kts 253°
2026-05-06 20:11 49.15534 2.33012 34970 ft 438 kts 254°
2026-05-06 20:12 49.13751 2.24124 34976 ft 438 kts 253°
2026-05-06 20:12 49.11955 2.15223 34968 ft 438 kts 253°
2026-05-06 20:13 49.10221 2.06645 34973 ft 438 kts 254°
2026-05-06 20:13 49.07931 1.97961 34972 ft 439 kts 246°
2026-05-06 20:14 49.05519 1.89952 34975 ft 440 kts 246°
2026-05-06 20:14 49.02961 1.81469 34973 ft 440 kts 246°
2026-05-06 20:15 49.00400 1.73005 34982 ft 440 kts 246°
2026-05-06 20:15 48.97835 1.64548 34991 ft 440 kts 246°
2026-05-06 20:16 48.95259 1.56088 35005 ft 440 kts 246°
2026-05-06 20:16 48.92685 1.47661 35008 ft 440 kts 246°
2026-05-06 20:17 48.90098 1.39237 35010 ft 440 kts 246°
2026-05-06 20:17 48.87502 1.30808 35003 ft 440 kts 246°
2026-05-06 20:18 48.84904 1.22403 35003 ft 440 kts 246°
2026-05-06 20:18 48.82295 1.13993 35007 ft 440 kts 246°
2026-05-06 20:19 48.79694 1.05608 35008 ft 440 kts 246°
2026-05-06 20:19 48.77072 0.97213 35007 ft 440 kts 246°
2026-05-06 20:20 48.74421 0.88859 35006 ft 440 kts 242°
2026-05-06 20:20 48.71252 0.80914 34996 ft 441 kts 240°
2026-05-06 20:21 48.68048 0.73015 34999 ft 441 kts 240°
2026-05-06 20:21 48.64820 0.65097 34998 ft 441 kts 240°
2026-05-06 20:22 48.61601 0.57202 35003 ft 441 kts 240°
2026-05-06 20:22 48.58367 0.49275 35007 ft 441 kts 240°
2026-05-06 20:23 48.55141 0.41405 34993 ft 441 kts 240°
2026-05-06 20:23 48.51912 0.33543 34994 ft 441 kts 239°
2026-05-06 20:24 48.48669 0.25678 34994 ft 441 kts 239°
2026-05-06 20:24 48.45424 0.17836 34993 ft 441 kts 239°
2026-05-06 20:25 48.42178 0.10003 34997 ft 441 kts 239°
2026-05-06 20:25 48.38931 0.02172 34997 ft 441 kts 239°
2026-05-06 20:26 48.35647 -0.05624 34998 ft 441 kts 238°
2026-05-06 20:26 48.32059 -0.13131 35004 ft 442 kts 234°
2026-05-06 20:27 48.28306 -0.20435 35000 ft 442 kts 234°
2026-05-06 20:27 48.24568 -0.27747 35005 ft 441 kts 234°
2026-05-06 20:28 48.20841 -0.35061 35000 ft 442 kts 234°
2026-05-06 20:28 48.17104 -0.42381 35000 ft 442 kts 234°
2026-05-06 20:29 48.13362 -0.49674 34998 ft 442 kts 234°
2026-05-06 20:29 48.09592 -0.57008 34996 ft 442 kts 234°
2026-05-06 20:30 48.03960 -0.67931 35001 ft 442 kts 234°
2026-05-06 20:31 48.00191 -0.75201 35000 ft 442 kts 234°
2026-05-06 20:31 47.96434 -0.82454 34995 ft 442 kts 234°
2026-05-06 20:32 47.92672 -0.89692 34997 ft 441 kts 233°
2026-05-06 20:32 47.88909 -0.96897 35004 ft 440 kts 233°
2026-05-06 20:33 47.85141 -1.04100 35001 ft 440 kts 233°
2026-05-06 20:33 47.81377 -1.11275 35001 ft 440 kts 233°
2026-05-06 20:34 47.77619 -1.18435 34990 ft 440 kts 233°
2026-05-06 20:34 47.73851 -1.25591 34983 ft 440 kts 233°
2026-05-06 20:35 47.70075 -1.32732 35006 ft 439 kts 233°
2026-05-06 20:35 47.66294 -1.39864 35009 ft 438 kts 233°
2026-05-06 20:36 47.62525 -1.46939 35003 ft 438 kts 233°
2026-05-06 20:36 47.58721 -1.53989 34992 ft 438 kts 231°
2026-05-06 20:37 47.55352 -1.59660 34983 ft 439 kts 229°
2026-05-06 20:37 47.50526 -1.67371 34986 ft 439 kts 229°
2026-05-06 20:38 47.47071 -1.72943 34992 ft 438 kts 229°
2026-05-06 20:38 47.43004 -1.79604 34996 ft 437 kts 229°
2026-05-06 20:39 47.38939 -1.86268 35002 ft 436 kts 229°
2026-05-06 20:39 47.34731 -1.92705 34997 ft 438 kts 220°
2026-05-06 20:40 47.29612 -1.97626 34985 ft 439 kts 213°
2026-05-06 20:40 47.24391 -2.02282 34995 ft 440 kts 213°
2026-05-06 20:41 47.19151 -2.06959 34990 ft 440 kts 213°
2026-05-06 20:41 47.13922 -2.11615 34993 ft 440 kts 213°
2026-05-06 20:42 47.08691 -2.16266 34997 ft 439 kts 213°
2026-05-06 20:42 47.03465 -2.20905 35002 ft 439 kts 213°
2026-05-06 20:43 46.98236 -2.25520 35001 ft 438 kts 212°
2026-05-06 20:43 46.93018 -2.30115 34997 ft 438 kts 212°
2026-05-06 20:44 46.87757 -2.34739 35000 ft 438 kts 212°
2026-05-06 20:44 46.82529 -2.39343 34999 ft 438 kts 213°
2026-05-06 20:45 46.77309 -2.43933 34997 ft 438 kts 212°
2026-05-06 20:45 46.72084 -2.48509 35001 ft 438 kts 212°
2026-05-06 20:46 46.66859 -2.53071 35008 ft 438 kts 212°
2026-05-06 20:46 46.61622 -2.57627 35012 ft 438 kts 212°
2026-05-06 20:47 46.56397 -2.62176 35018 ft 438 kts 212°
2026-05-06 20:47 46.51175 -2.66719 35010 ft 438 kts 212°
2026-05-06 20:48 46.45952 -2.71246 35009 ft 437 kts 212°
2026-05-06 20:48 46.40717 -2.75758 35008 ft 437 kts 212°
2026-05-06 20:49 46.35487 -2.80245 35015 ft 437 kts 212°
2026-05-06 20:49 46.30261 -2.84728 35015 ft 437 kts 212°
2026-05-06 20:50 46.25215 -2.89575 35013 ft 434 kts 222°
2026-05-06 20:50 46.20627 -2.95230 35016 ft 434 kts 221°
2026-05-06 20:51 46.16017 -3.00842 35010 ft 434 kts 221°
2026-05-06 20:51 46.11406 -3.06442 35007 ft 433 kts 221°
2026-05-06 20:52 46.06769 -3.12071 35008 ft 433 kts 221°
2026-05-06 20:52 46.02189 -3.17624 35012 ft 433 kts 221°
2026-05-06 20:53 45.97556 -3.23230 35014 ft 432 kts 221°
2026-05-06 20:53 45.92953 -3.28789 35009 ft 432 kts 221°
2026-05-06 20:54 45.88339 -3.34346 35012 ft 432 kts 221°
2026-05-06 20:54 45.83731 -3.39880 35019 ft 432 kts 221°
2026-05-06 20:55 45.79126 -3.45396 35019 ft 432 kts 221°
2026-05-06 20:55 45.74519 -3.50913 35014 ft 432 kts 221°
2026-05-06 20:56 45.69899 -3.56424 35013 ft 432 kts 221°
2026-05-06 20:56 45.65287 -3.61911 35020 ft 431 kts 221°
2026-05-06 20:57 45.60677 -3.67390 35022 ft 431 kts 221°
2026-05-06 20:57 45.56063 -3.72854 35022 ft 431 kts 221°
2026-05-06 20:58 45.51439 -3.78316 35016 ft 431 kts 221°
2026-05-06 20:58 45.46826 -3.83764 35025 ft 431 kts 221°
2026-05-06 20:59 45.42216 -3.89205 35035 ft 430 kts 220°
2026-05-06 20:59 45.37606 -3.94629 35033 ft 430 kts 220°
2026-05-06 21:00 45.32965 -4.00074 35033 ft 430 kts 220°
2026-05-06 21:00 45.28376 -4.05435 35031 ft 429 kts 220°
2026-05-06 21:01 45.23735 -4.10835 35035 ft 428 kts 220°
2026-05-06 21:01 45.19128 -4.16191 35034 ft 428 kts 220°
2026-05-06 21:02 45.14517 -4.21551 35034 ft 428 kts 220°
2026-05-06 21:02 45.09918 -4.26896 35026 ft 428 kts 220°
2026-05-06 21:03 45.05320 -4.32227 35027 ft 427 kts 220°
2026-05-06 21:03 45.00713 -4.37535 35028 ft 427 kts 220°
2026-05-06 21:04 44.96093 -4.42842 35030 ft 428 kts 220°
2026-05-06 21:04 44.91485 -4.48151 35033 ft 428 kts 220°
2026-05-06 21:05 44.86870 -4.53446 35031 ft 428 kts 220°
2026-05-06 21:05 44.82249 -4.58729 35035 ft 428 kts 220°
2026-05-06 21:06 44.77622 -4.64015 35038 ft 428 kts 220°
2026-05-06 21:06 44.73005 -4.69294 35036 ft 427 kts 220°
2026-05-06 21:07 44.68386 -4.74555 35036 ft 427 kts 220°
2026-05-06 21:07 44.63763 -4.79795 35035 ft 427 kts 220°
2026-05-06 21:08 44.59138 -4.85031 35036 ft 427 kts 220°
2026-05-06 21:08 44.54474 -4.90287 35034 ft 427 kts 220°
2026-05-06 21:09 44.49778 -4.95396 35029 ft 428 kts 214°
2026-05-06 21:09 44.44736 -4.99814 35028 ft 428 kts 213°
2026-05-06 21:10 44.39693 -5.04220 35022 ft 428 kts 213°
2026-05-06 21:10 44.34648 -5.08621 35022 ft 428 kts 213°
2026-05-06 21:11 44.29593 -5.13022 35016 ft 428 kts 213°
2026-05-06 21:11 44.25394 -5.16669 35019 ft 427 kts 213°
2026-05-06 21:12 44.20348 -5.21041 35020 ft 427 kts 213°
2026-05-06 21:12 44.15302 -5.25404 35021 ft 427 kts 213°
2026-05-06 21:13 44.10226 -5.29793 35013 ft 427 kts 213°
2026-05-06 21:13 44.05184 -5.34144 35020 ft 426 kts 213°
2026-05-06 21:14 44.00134 -5.38486 35023 ft 426 kts 212°
2026-05-06 21:14 43.95093 -5.42815 35023 ft 426 kts 212°
2026-05-06 21:15 43.90055 -5.47142 35019 ft 426 kts 213°
2026-05-06 21:15 43.85007 -5.51461 35017 ft 426 kts 212°
2026-05-06 21:16 43.79966 -5.55750 35023 ft 425 kts 212°
2026-05-06 21:16 43.74924 -5.60032 35024 ft 425 kts 212°
2026-05-06 21:17 43.69883 -5.64302 35023 ft 425 kts 212°
2026-05-06 21:17 43.64840 -5.68587 35019 ft 425 kts 212°
2026-05-06 21:18 43.59808 -5.72859 35029 ft 425 kts 212°
2026-05-06 21:18 43.54773 -5.77118 35032 ft 425 kts 212°
2026-05-06 21:19 43.49740 -5.81365 35033 ft 424 kts 212°
2026-05-06 21:19 43.44695 -5.85604 35025 ft 424 kts 212°
2026-05-06 21:20 43.39660 -5.89822 35027 ft 424 kts 212°
2026-05-06 21:20 43.34626 -5.94033 35025 ft 424 kts 212°
2026-05-06 21:21 43.29563 -5.98270 35025 ft 424 kts 212°
2026-05-06 21:21 43.24527 -6.02485 35019 ft 423 kts 212°
2026-05-06 21:22 43.19503 -6.06680 35023 ft 423 kts 212°
2026-05-06 21:22 43.14477 -6.10858 35035 ft 422 kts 212°
2026-05-06 21:23 43.09453 -6.15014 35030 ft 422 kts 212°
2026-05-06 21:23 43.04425 -6.19173 35024 ft 421 kts 212°
2026-05-06 21:24 42.99417 -6.23325 35024 ft 421 kts 212°
2026-05-06 21:24 42.94411 -6.27449 35020 ft 420 kts 212°
2026-05-06 21:25 42.89411 -6.31561 35010 ft 419 kts 212°
2026-05-06 21:25 42.84411 -6.35678 34991 ft 419 kts 212°
2026-05-06 21:26 42.79421 -6.39777 34992 ft 419 kts 212°
2026-05-06 21:26 42.74427 -6.43858 34992 ft 419 kts 212°
2026-05-06 21:27 42.69441 -6.47939 34999 ft 418 kts 212°
2026-05-06 21:27 42.64445 -6.52010 34989 ft 418 kts 212°
2026-05-06 21:28 42.59459 -6.56072 34983 ft 418 kts 212°
2026-05-06 21:28 42.54472 -6.60131 34982 ft 418 kts 212°
2026-05-06 21:29 42.49439 -6.64213 34978 ft 418 kts 211°
2026-05-06 21:29 42.44476 -6.68225 34976 ft 418 kts 211°
2026-05-06 21:30 42.39456 -6.72286 34973 ft 417 kts 211°
2026-05-06 21:30 42.34471 -6.76315 34976 ft 417 kts 211°
2026-05-06 21:31 42.29495 -6.80319 34974 ft 416 kts 211°
2026-05-06 21:31 42.24508 -6.84318 34985 ft 416 kts 211°
2026-05-06 21:32 42.19529 -6.88304 34968 ft 416 kts 211°
2026-05-06 21:32 42.12061 -6.94283 34964 ft 417 kts 211°
2026-05-06 21:33 42.07066 -6.98268 34966 ft 417 kts 211°
2026-05-06 21:33 42.02069 -7.02247 34964 ft 417 kts 211°
2026-05-06 21:34 41.97078 -7.06218 34947 ft 417 kts 211°
2026-05-06 21:34 41.92092 -7.10185 34955 ft 416 kts 211°
2026-05-06 21:35 41.87114 -7.14134 34958 ft 416 kts 211°
2026-05-06 21:35 41.82120 -7.18075 34959 ft 416 kts 211°
2026-05-06 21:36 41.77125 -7.22005 34959 ft 416 kts 211°
2026-05-06 21:36 41.72139 -7.25930 34947 ft 416 kts 211°
2026-05-06 21:37 41.67133 -7.29825 34943 ft 416 kts 211°
2026-05-06 21:37 41.62115 -7.33706 34938 ft 417 kts 211°
2026-05-06 21:38 41.57062 -7.37620 34939 ft 416 kts 211°
2026-05-06 21:38 41.52088 -7.41469 34924 ft 416 kts 211°
2026-05-06 21:39 41.47042 -7.45365 34943 ft 416 kts 211°
2026-05-06 21:39 41.42045 -7.49216 34939 ft 416 kts 211°
2026-05-06 21:40 41.37036 -7.53068 34942 ft 415 kts 211°
2026-05-06 21:40 41.32029 -7.56912 34940 ft 415 kts 211°
2026-05-06 21:41 41.27027 -7.60751 34957 ft 415 kts 211°
2026-05-06 21:41 41.22019 -7.64588 34938 ft 416 kts 211°
2026-05-06 21:42 41.16998 -7.68421 34936 ft 416 kts 211°
2026-05-06 21:42 41.11971 -7.72252 34935 ft 417 kts 211°
2026-05-06 21:43 41.06947 -7.76072 34930 ft 417 kts 211°
2026-05-06 21:43 41.01917 -7.79886 34949 ft 417 kts 211°
2026-05-06 21:44 40.96884 -7.83708 34952 ft 416 kts 211°
2026-05-06 21:44 40.91858 -7.87519 34958 ft 417 kts 211°
2026-05-06 21:45 40.86829 -7.91318 34952 ft 416 kts 211°
2026-05-06 21:45 40.82611 -7.94493 34950 ft 416 kts 211°
2026-05-06 21:46 40.77617 -7.98260 34962 ft 416 kts 211°
2026-05-06 21:46 40.72567 -8.02064 34956 ft 415 kts 211°
2026-05-06 21:47 40.67550 -8.05824 34955 ft 415 kts 211°
2026-05-06 21:47 40.62533 -8.09578 34955 ft 415 kts 211°
2026-05-06 21:48 40.57514 -8.13336 34947 ft 414 kts 211°
2026-05-06 21:48 40.52499 -8.17081 34956 ft 414 kts 211°
2026-05-06 21:49 40.47464 -8.20740 34962 ft 414 kts 208°
2026-05-06 21:49 40.42267 -8.24026 34967 ft 414 kts 206°
2026-05-06 21:50 40.37037 -8.27173 34967 ft 414 kts 206°
2026-05-06 21:50 40.31814 -8.30385 34967 ft 414 kts 207°
2026-05-06 21:51 40.26620 -8.33646 34966 ft 414 kts 207°
2026-05-06 21:51 40.21419 -8.36919 34972 ft 415 kts 207°
2026-05-06 21:52 40.16203 -8.40188 34953 ft 416 kts 207°
2026-05-06 21:52 40.10972 -8.43449 34946 ft 417 kts 207°
2026-05-06 21:53 40.05723 -8.46707 34956 ft 417 kts 207°
2026-05-06 21:53 40.00479 -8.49959 34956 ft 417 kts 207°
2026-05-06 21:54 39.95238 -8.53217 34963 ft 418 kts 207°
2026-05-06 21:54 39.89984 -8.56471 34957 ft 418 kts 207°
2026-05-06 21:55 39.84737 -8.59704 34960 ft 417 kts 207°
2026-05-06 21:55 39.79497 -8.62940 34735 ft 416 kts 207°
2026-05-06 21:56 39.76869 -8.64564 34072 ft 416 kts 207°
2026-05-06 21:56 39.74222 -8.66197 33318 ft 415 kts 207°
2026-05-06 21:56 39.71625 -8.67798 32535 ft 416 kts 207°
2026-05-06 21:56 39.68999 -8.69417 31717 ft 416 kts 207°
2026-05-06 21:57 39.66426 -8.70995 31116 ft 412 kts 206°
2026-05-06 21:57 39.63821 -8.72588 30536 ft 408 kts 206°
2026-05-06 21:57 39.61288 -8.74135 29946 ft 405 kts 206°
2026-05-06 21:57 39.58723 -8.75703 29266 ft 401 kts 206°
2026-05-06 21:58 39.56198 -8.77250 28624 ft 398 kts 206°
2026-05-06 21:58 39.53713 -8.78775 27996 ft 394 kts 206°
2026-05-06 21:58 39.51246 -8.80287 27390 ft 391 kts 206°
2026-05-06 21:58 39.48787 -8.81786 26774 ft 388 kts 206°
2026-05-06 21:59 39.46361 -8.83262 26189 ft 385 kts 206°
2026-05-06 21:59 39.43941 -8.84735 25602 ft 382 kts 206°
2026-05-06 21:59 39.41559 -8.86185 25036 ft 379 kts 206°
2026-05-06 21:59 39.39179 -8.87637 24473 ft 376 kts 206°
2026-05-06 22:00 39.36817 -8.89080 23907 ft 374 kts 206°
2026-05-06 22:00 39.34469 -8.90512 23329 ft 371 kts 206°
2026-05-06 22:00 39.32139 -8.91927 22725 ft 369 kts 205°
2026-05-06 22:00 39.29828 -8.93328 22138 ft 366 kts 206°
2026-05-06 22:01 39.27536 -8.94719 21596 ft 364 kts 206°
2026-05-06 22:01 39.25250 -8.96105 21054 ft 361 kts 206°
2026-05-06 22:01 39.22980 -8.97478 20517 ft 359 kts 206°
2026-05-06 22:01 39.20732 -8.98836 20011 ft 357 kts 206°
2026-05-06 22:02 39.18490 -9.00191 19510 ft 354 kts 206°
2026-05-06 22:02 39.16260 -9.01538 19025 ft 352 kts 206°
2026-05-06 22:02 39.14051 -9.02872 18541 ft 351 kts 206°
2026-05-06 22:02 39.11838 -9.04208 18052 ft 349 kts 206°
2026-05-06 22:03 39.09651 -9.05529 17533 ft 347 kts 206°
2026-05-06 22:03 39.07472 -9.06840 17045 ft 345 kts 206°
2026-05-06 22:03 39.05310 -9.08139 16566 ft 343 kts 206°
2026-05-06 22:03 39.03151 -9.09439 16070 ft 341 kts 206°
2026-05-06 22:04 39.01016 -9.10726 15616 ft 339 kts 206°
2026-05-06 22:04 38.98883 -9.12010 15159 ft 336 kts 206°
2026-05-06 22:04 38.96778 -9.13278 14671 ft 335 kts 206°
2026-05-06 22:04 38.94665 -9.14547 14225 ft 334 kts 206°
2026-05-06 22:05 38.92561 -9.15810 13781 ft 332 kts 207°
2026-05-06 22:05 38.90452 -9.17075 13298 ft 330 kts 207°
2026-05-06 22:05 38.88375 -9.18321 12799 ft 329 kts 206°
2026-05-06 22:05 38.86313 -9.19555 12130 ft 324 kts 206°
2026-05-06 22:06 38.84280 -9.20768 11293 ft 320 kts 206°
2026-05-06 22:06 38.82266 -9.21970 10473 ft 317 kts 205°
2026-05-06 22:06 38.80278 -9.23158 9652 ft 314 kts 205°
2026-05-06 22:06 38.78303 -9.24336 8774 ft 311 kts 205°
2026-05-06 22:07 38.76353 -9.25497 7956 ft 307 kts 205°
2026-05-06 22:07 38.74433 -9.26640 7185 ft 301 kts 205°
2026-05-06 22:07 38.72548 -9.27760 6402 ft 297 kts 205°
2026-05-06 22:07 38.70682 -9.28868 5554 ft 296 kts 205°
2026-05-06 22:08 38.68814 -9.29982 4766 ft 297 kts 206°
2026-05-06 22:08 38.66950 -9.31095 4174 ft 291 kts 207°
2026-05-06 22:08 38.65183 -9.32143 4023 ft 270 kts 207°
2026-05-06 22:08 38.63476 -9.32838 4003 ft 249 kts 187°
2026-05-06 22:09 38.61806 -9.32718 4003 ft 234 kts 165°
2026-05-06 22:09 38.60379 -9.31891 4003 ft 220 kts 143°
2026-05-06 22:09 38.59325 -9.30569 3997 ft 206 kts 122°
2026-05-06 22:09 38.58698 -9.28964 4029 ft 201 kts 102°
2026-05-06 22:10 38.58496 -9.27227 4010 ft 196 kts 84°
2026-05-06 22:10 38.58709 -9.25534 4008 ft 192 kts 69°
2026-05-06 22:10 38.59329 -9.24079 3950 ft 182 kts 46°
2026-05-06 22:10 38.60277 -9.23125 3796 ft 169 kts 22°
2026-05-06 22:11 38.61335 -9.22550 3599 ft 163 kts 19°
2026-05-06 22:11 38.62374 -9.21998 3395 ft 160 kts 19°
2026-05-06 22:11 38.63397 -9.21455 3187 ft 157 kts 19°
2026-05-06 22:11 38.64399 -9.20922 2973 ft 156 kts 18°
2026-05-06 22:12 38.65395 -9.20391 2770 ft 154 kts 18°
2026-05-06 22:12 38.66379 -9.19867 2553 ft 152 kts 19°
2026-05-06 22:12 38.67350 -9.19350 2365 ft 151 kts 19°
2026-05-06 22:12 38.68323 -9.18832 2154 ft 152 kts 18°
2026-05-06 22:13 38.69293 -9.18315 1936 ft 151 kts 18°
2026-05-06 22:13 38.70250 -9.17804 1753 ft 147 kts 18°
2026-05-06 22:13 38.71194 -9.17300 1549 ft 144 kts 19°
2026-05-06 22:13 38.72106 -9.16813 1368 ft 137 kts 19°
2026-05-06 22:14 38.72984 -9.16345 1162 ft 139 kts 19°
2026-05-06 22:14 38.73862 -9.15876 970 ft 134 kts 17°
2026-05-06 22:14 38.74720 -9.15416 784 ft 136 kts 19°
2026-05-06 22:14 38.75606 -9.14947 620 ft 141 kts 18°
2026-05-06 22:15 38.76505 -9.14457 422 ft 138 kts 18°
2026-05-06 22:15 38.77345 -9.14014 363 ft 113 kts 22°
2026-05-06 22:15 38.77910 -9.13712 366 ft 63 kts 23°
2026-05-06 22:15 38.78165 -9.13572 370 ft 25 kts 26°
2026-05-06 22:16 38.78307 -9.13440 367 ft 26 kts 45°
2026-05-06 22:16 38.78379 -9.13322 362 ft 10 kts 78°
2026-05-06 22:16 38.78335 -9.13264 360 ft 11 kts 179°
2026-05-06 22:16 38.78262 -9.13295 363 ft 11 kts 202°
2026-05-06 22:17 38.78192 -9.13332 360 ft 11 kts 202°
2026-05-06 22:17 38.78125 -9.13367 364 ft 10 kts 202°
2026-05-06 22:17 38.78063 -9.13400 360 ft 9 kts 202°
2026-05-06 22:17 38.78022 -9.13415 357 ft 10 kts 182°
2026-05-06 22:18 38.77913 -9.13387 354 ft 14 kts 168°
2026-05-06 22:18 38.77844 -9.13368 348 ft 16 kts 168°
2026-05-06 22:18 38.77726 -9.13336 336 ft 20 kts 168°
2026-05-06 22:18 38.77634 -9.13320 334 ft 12 kts 180°
2026-05-06 22:19 38.77556 -9.13314 337 ft 11 kts 167°
2026-05-06 22:19 38.77486 -9.13295 335 ft 10 kts 168°
2026-05-06 22:19 38.77422 -9.13277 338 ft 9 kts 168°
2026-05-06 22:19 38.77363 -9.13264 334 ft 9 kts 172°
2026-05-06 22:20 38.77292 -9.13250 338 ft 11 kts 169°
2026-05-06 22:20 38.77218 -9.13230 337 ft 11 kts 168°
2026-05-06 22:20 38.77149 -9.13212 338 ft 10 kts 168°
2026-05-06 22:20 38.77088 -9.13195 338 ft 8 kts 168°
2026-05-06 22:21 38.77036 -9.13181 338 ft 6 kts 168°
2026-05-06 22:21 38.77016 -9.13155 332 ft 4 kts 89°
2026-05-06 22:21 38.77022 -9.13117 333 ft 3 kts 78°
2026-05-06 22:21 38.77026 -9.13096 337 ft 2 kts 78°
2026-05-06 22:22 38.77027 -9.13089 336 ft 0 kts 78°